Home > Time Zones > World Clock > Weather > U.S.A. > Gary > Past weeks

Flag for U.S.A. Weather past 2 weeks in Gary, Indiana, U.S.A.

49 °F

Broken clouds.

Feels Like: 43 °F
Forecast: 36 / 49 °F
Wind: 15 mph from South

Location: Lansing Municipal Airport

Current Time: Nov 25, 2015 at 1:16:38 PM

Latest Report: Nov 25, 2015 at 12:55 PM

Visibility: 10 mi

Pressure: 30.21 "Hg

Humidity: 61%

Dew point: 36 °F

Location of GaryLocation

Historic Weather in Gary — Graph


Gary temperature yesterday

Maximum temperature yesterday: 42 °F (at 12:55 PM)
Minimum temperature yesterday: 20 °F (at 5:55 AM)
Average temperature yesterday: 32 °F

Past Weeks' High & Low Weather Summary

High64 °F (Nov 15, 1:55 PM)100% (Nov 24, 8:55 AM)30.36 "Hg (Nov 24, 8:55 AM)
Low8 °F (Nov 22, 6:35 AM)26% (Nov 20, 11:35 AM)29.31 "Hg (Nov 12, 12:55 AM)
Average41 °F71%30.03 "Hg
* Reported Nov 10 12:15 PM — Nov 25 12:15 PM, Gary, Weather by CustomWeather, © 2015

Note: Actual official high and low records may vary slightly from our data, if they occured in-between our weather recording intervals... More about our weather records


Gary weather history for previous 24 hours

Time TempWeatherWind HumidityBarometerVisibility
12:15 PM
Wed, Nov 25
47 °FSunny.14 mph63%30.23 "Hg10 mi
11:55 AM46 °FSunny.10 mph63%30.23 "Hg10 mi
11:35 AM45 °FSunny.13 mph62%30.23 "Hg10 mi
11:15 AM45 °FSunny.12 mph62%30.24 "Hg10 mi
10:55 AM45 °FSunny.14 mph61%30.25 "Hg10 mi
10:35 AM45 °FSunny.14 mph61%30.26 "Hg10 mi
10:15 AM44 °FSunny.16 mph64%30.27 "Hg10 mi
9:55 AM44 °FSunny.15 mph63%30.27 "Hg10 mi
9:35 AM43 °FSunny.14 mph64%30.28 "Hg10 mi
9:15 AM42 °FSunny.17 mph64%30.28 "Hg10 mi
8:55 AM42 °FSunny.14 mph64%30.28 "Hg10 mi
8:35 AM42 °FSunny.12 mph65%30.28 "Hg10 mi
8:15 AM41 °FSunny.15 mph68%30.27 "Hg10 mi
7:55 AM40 °FSunny.13 mph69%30.26 "Hg10 mi
7:35 AM40 °FSunny.14 mph70%30.26 "Hg10 mi
7:15 AM39 °FSunny.13 mph73%30.26 "Hg10 mi
6:55 AM38 °FSunny.9 mph76%30.26 "Hg10 mi
6:35 AM39 °FSunny.10 mph74%30.26 "Hg10 mi
6:15 AM39 °FSunny.12 mph74%30.26 "Hg10 mi
5:55 AM39 °FSunny.12 mph75%30.25 "Hg10 mi
5:35 AM39 °FClear.13 mph74%30.25 "Hg10 mi
5:15 AM39 °FClear.13 mph74%30.25 "Hg10 mi
4:55 AM39 °FClear.14 mph75%30.25 "Hg10 mi
4:35 AM39 °FClear.8 mph75%30.26 "Hg10 mi
4:15 AM36 °FClear.5 mph82%30.26 "Hg10 mi
3:55 AM36 °FClear.6 mph82%30.26 "Hg10 mi
3:35 AM36 °FClear.7 mph82%30.26 "Hg10 mi
3:15 AM36 °FClear.7 mph82%30.26 "Hg10 mi
2:55 AM37 °FClear.6 mph81%30.26 "Hg10 mi
2:35 AM36 °FClear.7 mph81%30.27 "Hg10 mi
2:15 AM36 °FClear.7 mph82%30.27 "Hg10 mi
1:55 AM37 °FClear.6 mph81%30.27 "Hg10 mi
1:15 AM37 °FClear.6 mph80%30.26 "Hg10 mi
12:55 AM37 °FClear.7 mph80%30.26 "Hg10 mi
12:15 AM37 °FClear.7 mph80%30.26 "Hg10 mi
11:55 PM
Tue, Nov 24
38 °FClear.8 mph78%30.26 "Hg10 mi
11:35 PM38 °FClear.8 mph78%30.26 "Hg10 mi
11:15 PM38 °FClear.8 mph77%30.26 "Hg10 mi
10:55 PM38 °FClear.7 mph78%30.26 "Hg10 mi
10:15 PM38 °FClear.8 mph79%30.26 "Hg10 mi
9:15 PM37 °FClear.5 mph81%30.26 "Hg10 mi
8:55 PM36 °FClear.8 mph82%30.27 "Hg10 mi
8:35 PM36 °FClear.7 mph82%30.27 "Hg10 mi
8:15 PM36 °FClear.9 mph81%30.27 "Hg10 mi
7:55 PM36 °FClear.9 mph80%30.27 "Hg10 mi
7:35 PM36 °FClear.10 mph80%30.28 "Hg10 mi
7:15 PM36 °FClear.8 mph82%30.28 "Hg10 mi
6:35 PM35 °FClear.5 mph86%30.29 "Hg7 mi
6:15 PM35 °FClear.7 mph84%30.28 "Hg7 mi
5:55 PM35 °FClear.7 mph85%30.28 "Hg7 mi
5:15 PM36 °FClear.7 mph84%30.28 "Hg10 mi
4:55 PM36 °FClear.7 mph83%30.28 "Hg10 mi
4:15 PM38 °FClear.6 mph78%30.28 "Hg10 mi
3:55 PM38 °FClear.8 mph76%30.28 "Hg10 mi
3:35 PM40 °FClear.9 mph72%30.28 "Hg10 mi
3:15 PM40 °FSunny.6 mph72%30.28 "Hg10 mi
2:55 PM41 °FSunny.8 mph69%30.29 "Hg10 mi
2:15 PM41 °FSunny.6 mph69%30.29 "Hg10 mi
1:55 PM41 °FSunny.9 mph68%30.30 "Hg10 mi
1:35 PM41 °FSunny.9 mph68%30.30 "Hg10 mi
1:15 PM42 °FSunny.9 mph66%30.30 "Hg10 mi
Weather by CustomWeather, © 2015

See weather overviewHow to use our weather pages